| time (UTC) | temp F | wind direction | speed MPH | gust MPH | rain 1hr in | rain 24hr in | rain mn in | humidity % | barometer mb |
| 20260505101530 | 64 | 175 | 5.0 | 10.0 | 0.00 | 0.00 | 0.00 | 75 | 1009.8 |
| 20260505100029 | 64 | 174 | 6.0 | 10.0 | 0.00 | 0.00 | 0.00 | 74 | 1009.9 |
| 20260505094527 | 65 | 174 | 8.0 | 12.0 | 0.00 | 0.00 | 0.00 | 73 | 1009.8 |
| 20260505093028 | 65 | 194 | 8.0 | 12.0 | 0.00 | 0.00 | 0.00 | 72 | 1010.0 |
| 20260505091529 | 65 | 207 | 8.0 | 10.0 | 0.00 | 0.00 | 0.00 | 72 | 1010.2 |
| 20260505090037 | 65 | 209 | 7.0 | 10.0 | 0.00 | 0.00 | 0.00 | 71 | 1010.3 |
| 20260505084525 | 65 | 196 | 8.0 | 11.0 | 0.00 | 0.00 | 0.00 | 71 | 1010.3 |
| 20260505083026 | 65 | 192 | 7.0 | 11.0 | 0.00 | 0.00 | 0.00 | 71 | 1009.8 |
| 20260505081522 | 65 | 190 | 10.0 | 13.0 | 0.00 | 0.00 | 0.00 | 70 | 1009.7 |
| 20260505080020 | 65 | 193 | 9.0 | 16.0 | 0.00 | 0.00 | 0.00 | 69 | 1009.6 |
| 20260505074520 | 65 | 191 | 11.0 | 15.0 | 0.00 | 0.00 | 0.00 | 69 | 1009.4 |
| 20260505073029 | 65 | 177 | 13.0 | 20.0 | 0.00 | 0.00 | 0.00 | 69 | 1009.2 |
| 20260505071519 | 65 | 185 | 11.0 | 18.0 | 0.00 | 0.00 | 0.00 | 69 | 1009.3 |
| 20260505070014 | 65 | 205 | 12.0 | 20.0 | 0.00 | 0.00 | 0.00 | 69 | 1009.6 |
| 20260505064530 | 65 | 180 | 12.0 | 20.0 | 0.00 | 0.00 | 0.00 | 69 | 1010.2 |
| 20260505063009 | 65 | 184 | 11.0 | 18.0 | 0.00 | 0.00 | 0.00 | 68 | 1010.3 |
| 20260505061512 | 66 | 180 | 12.0 | 17.0 | 0.00 | 0.00 | 0.00 | 68 | 1010.8 |
| 20260505060104 | 66 | 180 | 12.0 | 18.0 | 0.00 | 0.00 | 0.00 | 68 | 1010.8 |
| 20260505054627 | 66 | 187 | 10.0 | 16.0 | 0.00 | 0.00 | 0.00 | 67 | 1011.1 |
| 20260505053107 | 67 | 169 | 11.0 | 19.0 | 0.00 | 0.00 | 0.00 | 66 | 1011.0 |
| 20260505051552 | 67 | 182 | 10.0 | 17.0 | 0.00 | 0.00 | 0.00 | 65 | 1011.1 |
| 20260505041555 | 69 | 188 | 10.0 | 17.0 | 0.00 | 0.00 | 0.00 | 63 | 1011.4 |
| 20260505040047 | 69 | 203 | 8.0 | 12.0 | 0.00 | 0.00 | 0.00 | 62 | 1011.3 |
| 20260505034545 | 69 | 192 | 9.0 | 15.0 | 0.00 | 0.00 | 0.00 | 62 | 1011.3 |
| 20260505033047 | 69 | 178 | 11.0 | 18.0 | 0.00 | 0.00 | 0.00 | 61 | 1011.3 |
| 20260505031557 | 69 | 175 | 11.0 | 16.0 | 0.00 | 0.00 | 0.00 | 62 | 1011.2 |
| 20260505030042 | 70 | 184 | 9.0 | 14.0 | 0.00 | 0.00 | 0.00 | 61 | 1011.1 |
| 20260505024543 | 70 | 186 | 9.0 | 13.0 | 0.00 | 0.00 | 0.00 | 60 | 1010.7 |
| 20260505023040 | 71 | 196 | 8.0 | 13.0 | 0.00 | 0.00 | 0.00 | 59 | 1010.7 |
| 20260505021540 | 71 | 187 | 9.0 | 16.0 | 0.00 | 0.00 | 0.00 | 58 | 1010.6 |
| 20260505020039 | 71 | 212 | 7.0 | 11.0 | 0.00 | 0.00 | 0.00 | 58 | 1010.6 |
| 20260505014539 | 73 | 208 | 11.0 | 17.0 | 0.00 | 0.00 | 0.00 | 56 | 1010.5 |
| 20260505013037 | 73 | 211 | 13.0 | 19.0 | 0.00 | 0.00 | 0.00 | 55 | 1010.3 |
| 20260505011536 | 74 | 211 | 11.0 | 20.0 | 0.00 | 0.00 | 0.00 | 54 | 1010.2 |
| 20260505010034 | 74 | 211 | 12.0 | 21.0 | 0.00 | 0.00 | 0.00 | 54 | 1010.1 |
| 20260505004545 | 75 | 216 | 13.0 | 21.0 | 0.00 | 0.00 | 0.00 | 53 | 1009.9 |
| 20260505003033 | 76 | 219 | 14.0 | 21.0 | 0.00 | 0.00 | 0.00 | 51 | 1009.9 |
| 20260505001532 | 76 | 215 | 20.0 | 27.0 | 0.00 | 0.00 | 0.00 | 50 | 1009.8 |
| 20260505000044 | 77 | 208 | 19.0 | 28.0 | 0.00 | 0.00 | 0.00 | 49 | 1009.9 |
| 20260504234529 | 77 | 222 | 22.0 | 30.0 | 0.00 | 0.00 | 0.00 | 49 | 1009.9 |
| 20260504233028 | 78 | 213 | 14.0 | 27.0 | 0.00 | 0.00 | 0.00 | 48 | 1009.9 |
| 20260504231530 | 78 | 205 | 19.0 | 30.0 | 0.00 | 0.00 | 0.00 | 47 | 1010.2 |
| 20260504230024 | 79 | 220 | 23.0 | 32.0 | 0.00 | 0.00 | 0.00 | 47 | 1010.3 |
| 20260504224522 | 79 | 207 | 21.0 | 31.0 | 0.00 | 0.00 | 0.00 | 46 | 1010.3 |
| 20260504223021 | 79 | 202 | 21.0 | 30.0 | 0.00 | 0.00 | 0.00 | 47 | 1010.5 |
| 20260504221519 | 79 | 232 | 23.0 | 31.0 | 0.00 | 0.00 | 0.00 | 46 | 1010.6 |
| 20260504220018 | 79 | 239 | 23.0 | 31.0 | 0.00 | 0.00 | 0.00 | 45 | 1010.7 |
| 20260504214518 | 79 | 241 | 23.0 | 32.0 | 0.00 | 0.00 | 0.00 | 45 | 1010.6 |
| 20260504213016 | 80 | 225 | 24.0 | 31.0 | 0.00 | 0.00 | 0.00 | 44 | 1010.6 |
| 20260504211515 | 80 | 211 | 23.0 | 32.0 | 0.00 | 0.00 | 0.00 | 45 | 1010.7 |
| 20260504210021 | 80 | 238 | 27.0 | 39.0 | 0.00 | 0.00 | 0.00 | 42 | 1010.8 |
| 20260504204512 | 80 | 220 | 25.0 | 37.0 | 0.00 | 0.00 | 0.00 | 43 | 1010.9 |
| 20260504203011 | 80 | 225 | 25.0 | 38.0 | 0.00 | 0.00 | 0.00 | 42 | 1011.0 |
| 20260504201508 | 80 | 360 | 23.0 | 40.0 | 0.00 | 0.00 | 0.00 | 42 | 1011.2 |
| 20260504200010 | 80 | 232 | 24.0 | 38.0 | 0.00 | 0.00 | 0.00 | 42 | 1011.4 |
| 20260504194506 | 80 | 233 | 27.0 | 38.0 | 0.00 | 0.00 | 0.00 | 39 | 1011.4 |
| 20260504193006 | 80 | 221 | 20.0 | 33.0 | 0.00 | 0.00 | 0.00 | 42 | 1011.7 |
| 20260504191611 | 80 | 218 | 29.0 | 40.0 | 0.00 | 0.00 | 0.00 | 41 | 1011.8 |
| 20260504190126 | 80 | 215 | 23.0 | 30.0 | 0.00 | 0.00 | 0.00 | 44 | 1011.9 |
| 20260504184558 | 80 | 238 | 28.0 | 34.0 | 0.00 | 0.00 | 0.00 | 43 | 1012.0 |
| 20260504183105 | 80 | 237 | 24.0 | 35.0 | 0.00 | 0.00 | 0.00 | 41 | 1012.3 |
| 20260504181558 | 79 | 226 | 27.0 | 36.0 | 0.00 | 0.00 | 0.00 | 41 | 1012.3 |
| 20260504180054 | 79 | 231 | 25.0 | 33.0 | 0.00 | 0.00 | 0.00 | 43 | 1012.4 |
| 20260504174551 | 79 | 224 | 24.0 | 33.0 | 0.00 | 0.00 | 0.00 | 42 | 1012.6 |
| 20260504173049 | 79 | 213 | 25.0 | 40.0 | 0.00 | 0.00 | 0.00 | 41 | 1012.8 |
| 20260504171547 | 79 | 228 | 24.0 | 34.0 | 0.00 | 0.00 | 0.00 | 42 | 1013.1 |